Weather History for Rexburg, ID

Change the Weather History Date:

Wednesday, April 10, 2013

  Actual Average Record
Temperature  
Mean Temperature 37 °F 42 °F  
Max Temperature 53 °F 54 °F 76 °F (2012)
Min Temperature 21 °F 31 °F 19 °F (2001)
Degree Days  
Heating Degree Days 28 23  
Month to date heating degree days 207 238  
Since 1 July heating degree days 6867 7167  
Cooling Degree Days 0 0  
Month to date cooling degree days 0 0  
Year to date cooling degree days 0 0  
Moisture  
Dew Point 22 °F    
Average Humidity 52    
Maximum Humidity 74    
Minimum Humidity 30    
Precipitation  
Precipitation T in 0.04 in 0.27 in (1980)
Month to date precipitation 0.28 0.44  
Year to date precipitation 2.72 3.07  
Sea Level Pressure  
Sea Level Pressure 30.06 in    
Wind  
Wind Speed 8 mph (South)    
Max Wind Speed 18 mph    
Max Gust Speed 25 mph    
Visibility 10 miles    
Events      
T = Trace of Precipitation, MM = Missing Value Source: NWS Daily Summary

Daily Weather History Graph

Daily Weather History Graph

Search for Another Location

Airport:

Trip Planner

Search our weather history database for the weather conditions in past years. The results will help you decide how hot, cold, wet, or windy it might be!

Date:

Astronomy

Apr. 10, 2013 Rise Set
Actual Time 6:52 AM MDT 8:05 PM MDT
Civil Twilight 6:22 AM MDT 8:35 PM MDT
Nautical Twilight 5:47 AM MDT 9:10 PM MDT
Astronomical Twilight 5:09 AM MDT 9:48 PM MDT
Moon 6:49 AM MDT (4/10) 8:47 PM MDT (4/10)
Length of Visible Light 14h 12m
Length of Day
13h 13m
New Moon, 0% of the Moon is Illuminated
Apr 10
New Moon
Apr 18
First Quarter
Apr 25
Full
May 2
Last Quarter
May 9
New

Hourly Weather History & Observations

Time (MDT) Temp. Windchill Dew Point Humidity Pressure Visibility Wind Dir Wind Speed Gust Speed Precip Events Conditions
12:53 AM 28.9 °F 22.8 °F 18.0 °F 64% 30.19 in 10.0 mi North 5.8 mph - N/A   Clear
1:53 AM 28.9 °F 21.9 °F 16.0 °F 58% 30.18 in 10.0 mi NNE 6.9 mph - N/A   Clear
2:53 AM 27.0 °F 21.6 °F 16.0 °F 63% 30.18 in 10.0 mi ENE 4.6 mph - N/A   Clear
3:53 AM 28.0 °F 20.8 °F 16.0 °F 61% 30.16 in 10.0 mi ENE 6.9 mph - N/A   Clear
4:53 AM 24.1 °F 16.0 °F 17.1 °F 75% 30.15 in 10.0 mi NE 6.9 mph - N/A   Clear
5:53 AM 23.0 °F 18.4 °F 16.0 °F 74% 30.16 in 10.0 mi North 3.5 mph - N/A   Clear
6:53 AM 21.9 °F - 14.0 °F 72% 30.18 in 10.0 mi Calm Calm - N/A   Clear
7:53 AM 24.1 °F - 16.0 °F 71% 30.21 in 10.0 mi Calm Calm - N/A   Scattered Clouds
8:53 AM 28.0 °F - 18.0 °F 66% 30.22 in 10.0 mi Calm Calm - N/A   Overcast
9:53 AM 33.1 °F 28.7 °F 21.0 °F 61% 30.20 in 10.0 mi South 4.6 mph - N/A   Overcast
11:53 AM 41.0 °F 36.4 °F 14.0 °F 33% 30.17 in 10.0 mi South 6.9 mph - N/A   Overcast
1:53 PM 46.9 °F - 21.0 °F 36% 30.09 in 10.0 mi South 10.4 mph 20.7 mph N/A   Clear
2:53 PM 50.0 °F - 21.0 °F 32% 30.04 in 10.0 mi SSW 6.9 mph 19.6 mph N/A   Clear
3:53 PM 51.1 °F - 21.9 °F 32% 30.01 in 10.0 mi SSW 10.4 mph 20.7 mph N/A   Clear
4:53 PM 53.1 °F - 25.0 °F 34% 29.98 in 10.0 mi SSW 11.5 mph - N/A   Clear
5:53 PM 51.1 °F - 26.1 °F 38% 29.97 in 10.0 mi SSW 11.5 mph 20.7 mph N/A   Clear
6:53 PM 51.1 °F - 26.1 °F 38% 29.94 in 10.0 mi South 13.8 mph 19.6 mph N/A   Mostly Cloudy
7:53 PM 48.9 °F - 27.0 °F 43% 29.90 in 10.0 mi South 9.2 mph - N/A   Overcast
8:53 PM 48.0 °F - 28.0 °F 46% 29.87 in 10.0 mi South 10.4 mph - N/A   Mostly Cloudy
9:53 PM 48.0 °F - 33.1 °F 56% 29.85 in 10.0 mi South 11.5 mph 20.7 mph 0.00 in   Overcast
10:53 PM 46.9 °F - 36.0 °F 66% 29.83 in 10.0 mi South 15.0 mph 21.9 mph N/A   Partly Cloudy
11:53 PM 46.0 °F 41.0 °F 36.0 °F 68% 29.81 in 10.0 mi South 10.4 mph - N/A   Overcast